TimeAKDT,TemperatureF,Dew PointF,Humidity,Sea Level PressureIn,VisibilityMPH,Wind Direction,Wind SpeedMPH,Gust SpeedMPH,PrecipitationIn,Events,Conditions,WindDirDegrees,DateUTC
12:53 AM,14.0,12.0,92,30.16,10.0,Calm,Calm,-,N/A,,Mostly Cloudy,0,2012-10-28 08:53:00
1:53 AM,17.1,14.0,88,30.17,10.0,Calm,Calm,-,N/A,,Mostly Cloudy,0,2012-10-28 09:53:00
2:53 AM,16.0,14.0,92,30.17,10.0,Calm,Calm,-,N/A,,Overcast,0,2012-10-28 10:53:00
3:53 AM,12.0,9.0,88,30.17,10.0,Calm,Calm,-,N/A,,Scattered Clouds,0,2012-10-28 11:53:00
4:53 AM,10.0,6.1,84,30.18,9.0,Calm,Calm,-,N/A,,Clear,0,2012-10-28 12:53:00
5:41 AM,8.6,3.2,79,30.15,1.5,Calm,Calm,-,N/A,,Clear,0,2012-10-28 13:41:00
5:46 AM,8.6,3.2,79,30.15,10.0,Calm,Calm,-,N/A,,Clear,0,2012-10-28 13:46:00
5:53 AM,8.1,5.0,87,30.19,10.0,Calm,Calm,-,N/A,,Clear,0,2012-10-28 13:53:00
6:53 AM,7.0,3.0,84,30.19,10.0,Calm,Calm,-,N/A,,Clear,0,2012-10-28 14:53:00
7:43 AM,6.8,3.2,85,30.16,10.0,NE,3.5,-,N/A,,Scattered Clouds,50,2012-10-28 15:43:00
7:53 AM,6.1,3.0,87,30.20,10.0,ENE,3.5,-,N/A,,Scattered Clouds,60,2012-10-28 15:53:00
7:58 AM,6.8,3.2,85,30.16,10.0,Calm,Calm,-,N/A,,Mostly Cloudy,0,2012-10-28 15:58:00
8:18 AM,8.6,5.0,85,30.17,10.0,Calm,Calm,-,N/A,,Mostly Cloudy,0,2012-10-28 16:18:00
8:41 AM,8.6,3.2,79,30.17,6.0,Calm,Calm,-,N/A,,Mostly Cloudy,0,2012-10-28 16:41:00
8:53 AM,7.0,3.0,84,30.21,6.0,Calm,Calm,-,N/A,,Mostly Cloudy,0,2012-10-28 16:53:00
9:47 AM,5.0,1.4,85,30.17,8.0,Calm,Calm,-,N/A,Fog,Patches of Fog,0,2012-10-28 17:47:00
9:53 AM,6.1,1.0,80,30.21,6.0,Calm,Calm,-,N/A,,Mostly Cloudy,0,2012-10-28 17:53:00
10:53 AM,8.1,3.9,83,30.22,8.0,Calm,Calm,-,N/A,,Mostly Cloudy,0,2012-10-28 18:53:00
11:01 AM,8.6,6.8,92,30.18,8.0,Calm,Calm,-,N/A,,Mostly Cloudy,0,2012-10-28 19:01:00
11:53 AM,14.0,10.9,88,30.22,8.0,Calm,Calm,-,N/A,,Mostly Cloudy,0,2012-10-28 19:53:00
12:53 PM,18.0,15.1,88,30.22,8.0,Calm,Calm,-,N/A,,Overcast,0,2012-10-28 20:53:00
1:53 PM,19.0,16.0,88,30.21,8.0,Calm,Calm,-,N/A,,Overcast,0,2012-10-28 21:53:00
2:41 PM,19.4,15.8,86,30.17,6.0,Calm,Calm,-,N/A,,Overcast,0,2012-10-28 22:41:00
2:53 PM,19.0,16.0,88,30.20,6.0,Calm,Calm,-,N/A,,Overcast,0,2012-10-28 22:53:00
3:53 PM,19.9,16.0,85,30.20,6.0,Calm,Calm,-,0.00,,Overcast,0,2012-10-28 23:53:00
4:53 PM,19.9,17.1,89,30.19,6.0,Calm,Calm,-,N/A,,Overcast,0,2012-10-29 00:53:00
5:53 PM,19.9,16.0,85,30.18,6.0,NE,3.5,-,N/A,,Overcast,40,2012-10-29 01:53:00
6:53 PM,19.0,16.0,88,30.17,6.0,NNE,4.6,-,N/A,,Overcast,20,2012-10-29 02:53:00
7:53 PM,19.0,16.0,88,30.16,6.0,North,5.8,-,N/A,,Overcast,360,2012-10-29 03:53:00
8:53 PM,18.0,15.1,88,30.15,6.0,North,6.9,-,N/A,,Overcast,350,2012-10-29 04:53:00
9:14 PM,17.6,15.8,93,30.10,6.0,North,3.5,-,N/A,,Mostly Cloudy,10,2012-10-29 05:14:00
9:53 PM,17.1,14.0,88,30.13,6.0,Calm,Calm,-,N/A,,Mostly Cloudy,0,2012-10-29 05:53:00
10:53 PM,16.0,12.9,88,30.12,6.0,Calm,Calm,-,N/A,,Mostly Cloudy,0,2012-10-29 06:53:00
11:53 PM,12.0,9.0,88,30.11,10.0,Calm,Calm,-,N/A,,Mostly Cloudy,0,2012-10-29 07:53:00